Simultaneous Nadir Overpasses (SNOs) Predictions

Prediction of SNOs between AQUA and NOAA-19 Satellite Orbit:

Table of predicted SNOs for the next 14.0 days since TLE Epoch: 6/30/2017
Index Date (AQUA) Time (AQUA) Lat,Lon (AQUA) SZA (AQUA ) Date (NOAA-19) Time (NOAA-19) Lat,Lon (NOAA-19) SZA (NOAA-19 ) Distance(km) Time Diff (sec)
1 07/01/2017 09:16:23 80.95, 0.50 60.25 07/01/2017 09:15:56 80.95, 0.33 60.28 3.01 27
2 07/01/2017 10:05:49 -80.94, 168.31 119.78 07/01/2017 10:06:52 -80.95, 168.16 119.78 3.19 63
3 07/03/2017 14:50:07 -80.95, 97.13 119.58 07/03/2017 14:49:40 -80.95, 97.31 119.58 3.27 27
4 07/03/2017 15:39:34 80.96, -95.42 60.46 07/03/2017 15:40:44 80.95, -95.28 60.41 2.68 70
5 07/05/2017 20:23:51 80.95,-166.33 60.64 07/05/2017 20:23:33 80.95,-166.39 60.66 1.15 18
6 07/05/2017 21:13:18 -80.96, 1.22 119.34 07/05/2017 21:14:29 -80.95, 1.16 119.37 1.23 71
7 07/08/2017 01:57:35 -80.94, -69.66 119.13 07/08/2017 01:57:17 -80.95, -69.72 119.11 1.72 18
8 07/10/2017 07:31:19 80.95, 26.77 61.17 07/10/2017 07:31:10 80.95, 26.77 61.18 0.14 9
9 07/12/2017 13:05:04 -80.97, 123.12 118.49 07/12/2017 13:04:54 -80.95, 123.19 118.50 2.15 10




NCC Satellite Simultaneous Nadir Overpasses (SNOs) Prediction Service
